Theta_e
316 316 316 317 319 320 322 325 323 322 321 317 317 317 320 323 323 322 321 322 325 326 326 329 330 328 328 329 327 326 329 331 330 331 335 338 336 332 335 337 335 334 335 335 331 328 331 332 327 322 321 320 319 316 313 310 309 310 316 327 331 330 331 331 331 331 326 322 321 321 324 328 330 330 330 329 327 322 322 324 324 322 316 312 313 313 311 312 311 310 310 310 310 310 310 310 311
316 316 316 318 319 321 324 325 322 319 317 316 316 320 321 322 322 321 322 323 326 325 326 330 329 328 326 325 325 325 328 331 332 335 336 336 336 331 333 337 335 335 335 333 329 329 333 331 325 322 322 321 320 317 314 311 310 309 315 326 330 330 331 332 332 332 328 322 325 326 326 329 329 330 330 329 326 323 326 329 327 324 323 318 316 315 312 311 311 310 310 310 310 310 310 311 311
315 316 319 320 321 322 325 323 320 317 315 315 316 321 321 321 322 322 324 325 327 325 328 331 329 328 325 324 325 325 329 334 335 335 335 336 336 331 332 337 336 337 334 330 329 331 334 330 325 323 322 322 321 318 315 311 311 310 313 325 330 330 330 332 332 332 328 324 326 325 325 327 327 329 329 329 327 324 325 324 322 320 319 317 316 317 313 310 310 310 310 310 311 311 312 312 312
315 316 320 323 324 323 324 323 321 318 315 315 316 320 321 320 321 323 326 326 327 326 329 330 329 329 326 327 324 325 332 335 337 335 335 337 336 330 334 337 336 336 332 328 329 332 334 329 324 323 323 323 322 319 316 312 312 310 311 323 328 328 330 331 331 332 329 327 328 323 320 325 327 328 328 328 326 323 321 317 314 312 314 315 315 316 313 313 312 312 312 311 311 312 313 314 314
315 316 318 323 327 325 324 324 322 320 316 317 317 319 321 321 322 324 326 325 325 327 327 328 330 329 327 328 325 329 334 333 337 335 334 337 335 332 335 336 335 335 329 328 332 333 332 328 325 323 323 323 323 320 317 313 312 311 311 318 324 327 330 331 332 331 329 327 326 322 320 325 325 324 325 326 324 322 321 318 312 311 319 322 321 318 314 314 314 314 314 313 313 313 314 315 316
316 318 319 321 325 324 323 320 318 319 318 319 319 319 320 321 322 324 325 323 323 325 325 328 329 328 328 329 327 330 333 334 337 336 336 337 334 334 336 335 335 334 330 332 335 334 330 327 325 324 324 324 323 321 318 314 313 313 311 316 324 327 329 330 330 329 329 326 323 319 319 323 322 322 326 327 324 324 324 323 317 315 321 324 325 323 318 317 317 318 318 316 315 315 316 317 317
319 322 321 321 323 323 322 319 318 319 319 319 319 319 320 321 324 324 324 323 322 322 323 327 327 326 328 328 328 326 330 337 336 336 336 335 334 335 336 334 335 334 333 336 337 334 329 327 326 324 324 323 324 322 319 315 314 314 312 317 326 329 329 329 330 328 326 322 319 317 317 320 321 323 325 326 326 324 323 321 316 316 320 322 324 323 321 321 321 319 317 316 315 315 317 318 318
319 323 323 323 323 323 322 322 320 320 319 318 319 320 321 322 323 324 323 322 321 322 323 326 325 325 325 325 333 329 326 333 334 336 335 334 335 336 335 335 335 334 335 337 337 334 329 328 327 325 323 323 323 323 320 316 314 314 314 315 321 326 327 327 326 324 321 318 317 317 318 321 321 321 322 324 324 321 319 316 312 316 319 319 319 320 321 321 320 317 315 315 315 316 317 318 319
319 322 322 323 323 322 321 322 320 320 319 318 319 319 322 323 323 323 322 323 321 322 324 325 324 324 323 325 333 332 327 328 331 335 334 334 335 335 335 335 335 334 336 337 337 333 329 329 328 325 323 322 323 323 321 317 314 314 314 314 315 318 319 319 319 319 317 317 317 316 317 320 321 322 321 321 320 317 316 314 315 320 320 319 318 319 319 318 317 315 315 314 314 316 317 319 319
320 321 322 323 323 320 318 320 320 320 319 319 319 319 321 322 323 323 322 322 321 322 324 324 323 322 323 326 332 334 331 325 329 335 334 334 335 335 335 335 335 335 336 337 337 333 330 330 328 326 323 322 323 323 322 319 316 314 314 315 314 314 313 313 316 318 317 315 315 314 315 318 319 320 320 319 316 315 316 317 320 322 320 319 318 318 319 318 316 314 314 314 315 316 318 319 319
322 321 322 323 320 318 317 318 319 320 319 319 319 319 320 321 323 323 322 321 320 323 324 322 321 321 322 325 333 334 329 324 330 335 334 335 335 335 335 336 335 334 335 336 336 334 331 331 328 325 323 323 323 323 323 321 318 316 314 314 315 315 314 312 313 313 311 310 311 311 312 314 314 312 314 316 315 314 317 320 321 320 318 319 319 320 320 320 318 315 314 313 314 316 318 319 319
323 322 321 321 320 319 319 318 319 320 320 318 319 319 319 321 323 323 322 320 320 322 322 321 321 322 321 325 332 331 325 325 332 334 334 334 335 335 335 335 335 334 335 335 334 334 333 332 329 326 323 323 323 323 324 323 320 318 316 315 314 315 316 314 312 310 309 308 308 308 309 310 309 307 308 310 312 314 318 319 319 318 319 320 320 321 321 321 320 318 315 314 313 315 317 318 319
322 323 321 320 321 321 320 319 320 320 319 319 320 319 319 321 322 322 321 319 320 320 321 321 321 321 321 326 331 331 327 326 332 333 330 332 335 335 334 335 335 335 335 334 334 334 334 332 331 329 325 324 324 323 324 324 322 320 318 317 315 315 316 316 314 312 310 308 307 307 307 307 307 307 307 308 310 313 317 317 318 318 319 320 320 321 321 321 321 320 318 316 314 314 315 317 319
322 323 322 322 322 321 320 320 320 319 318 320 320 319 319 321 321 321 320 319 319 320 321 320 321 322 322 325 328 333 332 327 331 331 327 330 333 334 335 334 334 335 334 334 334 334 334 333 333 331 327 326 325 324 324 324 324 322 320 319 318 317 316 316 316 315 312 310 309 307 306 307 307 307 307 308 310 313 316 317 318 319 319 319 320 320 321 321 321 321 320 319 317 315 314 315 317
321 323 323 322 321 320 320 320 320 318 319 320 319 319 319 319 319 320 319 319 319 319 320 319 320 321 320 323 325 332 333 326 328 329 327 328 331 333 334 334 335 335 334 335 334 334 335 334 333 332 329 328 326 325 324 324 324 324 322 321 320 320 318 317 317 317 316 313 311 309 308 307 307 307 307 308 309 312 316 318 318 319 319 319 320 320 320 321 321 321 321 320 319 318 316 315 315
319 323 323 321 321 319 319 320 320 318 319 320 318 319 319 318 318 319 319 318 319 318 319 320 319 320 321 326 331 333 327 324 327 327 328 329 330 332 333 334 334 334 335 334 334 334 335 334 333 333 330 331 330 328 327 325 324 324 324 323 322 321 321 319 318 318 317 316 314 314 313 311 310 309 310 311 312 313 315 317 318 319 319 319 319 320 320 320 321 321 321 321 321 320 318 316 315
318 322 322 320 320 319 319 319 319 318 320 320 318 319 319 318 317 317 317 317 318 318 319 321 319 319 320 323 333 337 326 323 327 326 329 331 331 332 333 334 334 334 334 334 335 334 334 334 334 333 332 332 332 332 331 328 325 324 325 325 323 322 322 321 320 319 318 317 317 316 316 315 314 313 313 314 314 315 316 317 318 318 319 319 320 320 320 320 320 321 321 321 321 321 320 319 317
319 321 321 320 321 320 320 320 318 318 319 319 318 319 319 318 317 317 317 317 318 318 318 319 318 318 318 316 326 333 328 324 327 327 330 332 332 332 332 334 334 334 334 334 335 334 334 334 334 334 332 332 333 332 333 331 328 325 324 325 325 324 323 322 322 321 320 319 318 318 318 317 316 317 316 317 317 317 318 318 318 318 318 319 319 320 320 320 320 321 321 321 321 321 321 320 319
320 321 321 321 322 320 320 320 318 318 319 320 319 319 320 319 318 317 317 318 317 317 318 318 319 319 318 315 319 325 327 326 327 328 329 331 332 332 332 333 333 334 334 335 335 334 334 333 333 334 332 331 332 332 332 332 330 326 325 325 325 326 325 324 323 323 323 321 320 319 319 318 318 318 319 319 319 318 318 319 319 318 318 318 318 319 319 320 320 321 321 321 321 321 321 321 320
320 321 322 321 322 319 318 319 317 317 319 319 319 319 320 319 318 317 317 318 317 317 318 318 319 320 318 316 317 319 326 330 329 329 329 331 333 333 333 332 332 334 334 335 335 335 334 334 333 333 331 330 331 332 332 332 331 328 327 327 325 326 326 325 325 324 324 323 322 321 320 319 319 319 319 320 320 320 319 319 319 319 318 318 318 319 319 320 320 320 321 321 321 321 321 321 321
319 320 321 321 321 319 317 318 316 316 318 319 319 319 319 318 317 317 317 318 317 317 318 318 317 320 320 317 317 316 323 331 331 331 331 332 334 335 334 333 332 334 334 334 334 334 334 334 334 333 332 329 329 330 331 332 333 330 329 330 327 326 327 326 326 325 324 324 324 323 322 321 320 319 319 319 320 320 320 320 320 320 320 319 319 320 320 320 320 320 320 320 321 320 321 321 321
319 319 319 320 319 319 316 315 315 315 317 318 318 318 318 317 317 317 317 317 317 317 317 318 316 319 322 317 317 317 320 326 330 332 333 333 335 336 336 335 334 334 334 334 334 334 333 334 333 332 331 330 328 328 330 332 332 331 330 331 330 327 326 326 327 327 326 325 325 324 324 323 322 322 320 320 320 319 320 320 320 321 320 320 320 321 320 320 319 319 319 319 319 319 320 320 320
319 318 318 318 318 318 315 314 314 314 317 318 318 318 317 316 317 317 318 317 317 317 316 317 316 319 323 319 316 317 318 319 323 327 328 331 334 335 336 336 336 335 335 334 334 334 333 333 332 332 331 330 327 327 330 331 330 331 330 330 330 329 326 325 327 328 327 326 326 325 325 325 325 324 324 323 322 320 320 320 320 320 320 320 320 321 320 319 319 318 318 318 318 318 318 319 319
318 318 317 316 316 316 314 314 314 313 316 317 317 317 317 317 317 316 317 318 317 316 315 315 315 317 319 318 316 316 317 318 317 318 323 329 332 333 336 336 336 336 335 334 334 334 333 331 330 331 331 330 328 327 330 332 331 331 331 330 329 328 326 324 326 328 328 327 326 327 326 326 325 325 325 325 325 323 322 321 320 320 320 320 320 320 320 319 318 318 318 317 317 317 317 318 318
318 318 317 315 315 314 313 313 313 313 315 315 315 316 317 317 316 316 316 317 317 316 315 314 315 315 316 316 315 315 317 317 318 321 324 329 333 334 336 336 336 336 335 334 333 334 333 330 329 331 331 330 329 328 329 331 332 331 330 330 327 325 325 324 326 327 327 326 326 327 327 327 326 326 326 326 326 325 325 323 322 321 320 320 320 320 320 320 319 318 318 317 317 317 317 317 317
318 317 316 315 315 313 313 313 313 313 314 314 316 317 316 314 315 316 317 316 316 316 316 315 315 314 315 315 315 315 315 316 318 321 322 324 330 333 333 333 334 334 334 333 332 333 333 330 329 331 331 330 329 329 328 330 331 331 330 329 326 324 324 324 325 326 326 326 326 327 327 327 327 327 327 326 326 326 326 326 325 324 323 322 321 320 320 320 320 319 319 318 318 318 317 317 317
317 316 316 315 314 313 313 314 313 314 314 314 316 317 315 313 314 316 317 316 315 315 315 315 315 315 315 315 315 315 315 315 316 319 320 320 323 325 326 327 328 331 333 330 328 330 332 330 327 328 329 328 327 328 327 328 329 330 330 330 327 325 325 325 325 326 326 326 326 327 327 327 327 327 327 327 327 327 327 326 326 326 326 325 323 321 321 320 320 320 320 319 319 319 318 318 318
317 316 315 314 314 314 314 315 314 314 314 313 316 316 315 314 314 316 316 315 315 314 315 315 314 316 317 315 314 315 315 315 315 317 318 318 317 317 319 319 320 325 327 326 323 324 327 327 324 325 327 326 325 325 325 326 328 328 329 330 330 328 326 326 326 326 327 327 327 327 327 328 328 328 328 328 328 327 327 327 326 327 327 327 326 325 323 322 321 321 321 321 320 320 320 321 321
316 316 316 315 315 315 314 315 314 315 315 313 315 315 315 315 315 316 316 314 314 314 315 316 314 316 319 317 314 314 315 315 315 315 315 315 315 315 315 315 315 317 320 321 321 320 321 322 321 321 325 325 323 323 323 323 325 327 327 328 330 329 326 326 327 327 328 328 328 328 328 328 328 328 328 329 329 328 328 328 327 327 327 327 327 327 326 325 324 323 323 322 322 321 321 323 324
316 316 317 315 315 315 315 315 314 315 314 313 314 314 315 317 316 316 315 314 314 314 316 316 315 316 318 316 314 314 314 315 315 315 315 314 315 315 314 315 314 314 315 317 318 317 317 318 318 318 320 321 319 320 321 322 322 323 325 325 328 329 327 326 326 327 329 329 328 328 329 329 328 329 329 329 329 329 329 328 328 328 327 327 327 327 327 326 326 325 325 324 323 323 323 323 323
315 316 317 316 315 315 314 315 314 315 314 313 313 313 315 317 317 315 314 314 313 314 316 317 317 317 317 315 314 314 314 314 315 314 315 314 314 315 314 315 315 314 314 315 315 315 315 315 316 316 316 316 316 317 318 319 320 321 322 323 324 326 327 326 325 324 326 328 329 328 328 329 329 329 329 330 330 330 329 329 329 329 328 328 327 326 326 326 326 326 325 324 324 324 324 324 324
315 315 315 316 316 314 315 314 314 315 313 313 313 313 315 316 315 313 313 313 313 314 316 316 317 317 317 316 314 314 314 314 314 315 315 314 314 314 314 314 314 314 314 314 315 314 315 315 315 315 315 315 315 316 316 317 319 320 320 320 321 322 324 326 326 324 323 324 326 327 328 328 329 329 329 329 329 329 330 330 329 329 328 328 328 327 326 326 326 325 325 325 325 324 324 324 324
315 314 314 316 316 315 315 314 314 315 314 314 313 314 316 316 315 313 312 313 313 314 315 316 316 316 316 316 315 315 314 314 314 315 315 315 315 314 314 314 314 314 314 314 315 315 315 315 315 315 315 316 315 315 316 316 318 319 320 319 319 321 321 322 325 327 325 322 321 322 324 326 327 328 330 330 330 329 329 330 330 329 327 327 328 327 326 326 326 325 325 325 324 324 324 324 323
314 314 315 316 316 315 315 314 314 314 315 314 313 313 315 316 316 314 312 312 313 314 315 315 316 316 316 315 315 315 315 315 314 314 315 315 315 315 314 315 315 314 314 315 314 314 315 315 315 315 315 315 315 316 316 316 318 320 322 322 322 321 321 320 321 325 326 324 320 318 321 324 324 326 329 329 330 330 329 329 330 328 327 327 327 326 327 327 326 324 323 323 322 323 325 325 324
314 314 315 315 314 314 314 314 314 313 314 315 315 314 314 316 316 315 314 313 313 314 315 315 315 316 316 316 316 315 315 315 315 314 315 315 315 315 315 315 315 315 315 315 315 315 315 315 315 315 315 315 315 315 316 316 317 318 320 322 323 321 320 319 318 321 325 325 321 317 320 323 321 321 322 324 326 327 327 327 328 328 326 326 326 325 324 325 324 323 323 323 323 324 324 324 324
315 314 314 315 313 313 314 314 312 313 314 314 315 315 315 315 316 316 316 314 314 314 315 315 316 316 316 316 316 316 315 315 314 314 314 315 315 315 315 315 315 315 315 315 315 315 315 315 315 315 315 315 315 315 316 316 317 318 319 320 321 319 318 318 317 319 324 325 321 317 318 319 319 319 316 318 323 324 325 326 327 328 326 325 326 325 323 323 323 323 324 324 324 324 324 324 324
316 315 314 314 314 313 314 313 311 312 314 314 315 315 315 315 316 316 316 315 315 315 315 315 316 316 316 316 316 316 316 315 315 315 314 314 314 315 315 315 315 315 315 315 314 315 315 315 315 315 315 315 315 315 316 316 317 317 318 318 318 317 317 317 318 320 323 323 321 321 319 316 319 323 321 319 323 326 327 327 326 326 325 325 326 327 325 325 324 324 325 325 325 325 325 324 324
315 315 314 314 314 314 314 313 312 312 313 315 315 315 315 316 315 316 317 316 316 316 315 315 316 316 316 317 316 317 316 316 315 315 315 315 314 314 315 315 315 315 315 315 314 314 315 315 315 315 315 315 315 315 316 316 316 316 317 318 318 319 319 317 317 318 319 319 320 323 320 314 319 325 327 326 324 327 329 327 325 323 323 324 327 329 327 326 326 326 326 326 327 326 326 325 324
314 314 314 314 314 314 313 313 312 312 312 314 315 315 315 316 316 316 317 316 316 316 316 316 316 316 317 318 318 318 317 316 315 315 315 315 314 314 314 315 315 315 315 314 314 314 314 314 315 315 315 315 315 315 315 315 315 316 316 317 319 322 324 323 322 320 318 317 318 320 317 316 323 327 331 329 324 326 331 327 324 326 325 325 326 327 327 327 327 326 326 327 328 327 326 325 324
314 314 313 313 315 314 312 313 312 312 312 313 315 315 315 316 316 317 317 317 317 317 317 317 317 317 317 318 318 318 317 316 316 316 315 315 315 315 315 314 314 314 314 314 314 314 315 314 314 314 314 315 315 314 315 314 315 316 317 318 318 320 322 322 322 320 318 317 316 318 318 321 328 330 329 326 319 325 333 327 324 328 328 328 327 326 327 329 328 327 327 328 328 328 327 326 324
316 317 314 315 316 314 314 314 313 312 312 312 314 313 314 315 315 316 317 317 316 316 316 316 315 316 316 316 316 316 316 316 315 315 315 315 315 315 315 315 315 315 315 315 315 315 315 315 314 315 315 314 314 315 314 314 314 315 316 317 317 317 317 316 317 316 316 315 315 317 320 321 324 324 323 319 316 322 328 325 325 329 330 331 330 327 326 328 329 328 325 325 326 328 327 326 323
314 317 317 315 315 314 314 314 313 313 313 313 314 311 311 315 316 316 317 315 314 315 314 315 315 315 315 314 314 315 314 315 315 315 315 315 315 315 315 315 315 315 315 315 315 315 314 314 314 314 314 314 315 315 315 315 314 314 315 316 316 316 315 314 315 315 314 315 315 315 317 317 318 318 317 316 316 320 324 324 326 328 329 331 329 325 325 327 329 327 324 322 323 326 328 326 324
313 316 316 314 315 316 315 315 314 313 313 313 313 312 311 314 316 317 317 314 314 315 314 315 315 315 314 313 313 313 313 314 314 314 314 314 315 315 315 315 315 315 315 315 315 315 314 314 314 313 313 314 314 314 314 315 314 314 314 314 315 315 315 315 314 315 314 315 315 315 316 316 316 317 318 319 322 324 326 327 327 325 327 329 326 323 325 329 329 326 323 321 321 325 327 326 325
315 317 316 314 315 317 316 316 315 314 314 312 313 315 312 312 315 316 315 314 314 315 315 315 315 315 314 314 313 312 312 313 313 313 314 314 314 314 314 314 314 314 314 314 314 314 314 313 313 313 313 312 313 313 314 314 314 315 314 314 315 315 315 315 315 315 315 315 315 315 316 316 317 318 319 323 326 326 325 325 326 324 324 326 324 322 325 327 325 324 325 322 321 323 325 326 326
315 315 315 315 317 317 317 316 315 315 314 313 314 315 312 311 315 315 314 314 315 315 315 316 316 316 315 315 314 313 313 313 313 313 313 313 313 314 314 314 314 314 314 314 314 313 313 313 313 313 313 312 313 313 313 314 314 314 314 314 315 315 315 315 314 314 315 315 316 316 316 316 316 317 318 321 323 323 322 322 323 324 324 324 323 322 321 323 324 326 328 325 322 322 325 327 326
313 313 315 317 317 318 318 316 315 314 313 313 315 315 311 311 314 315 314 313 315 315 316 316 316 316 316 315 314 313 313 313 313 313 313 313 313 313 313 313 313 313 313 313 313 313 313 313 313 313 312 312 312 313 313 313 314 314 315 314 314 315 315 315 315 315 315 315 316 316 316 316 316 316 317 318 319 320 320 321 322 323 324 324 322 320 321 324 327 328 328 327 325 323 324 326 325
313 314 315 316 316 315 315 315 314 313 313 313 314 314 312 310 312 315 315 313 314 316 315 316 316 316 315 314 313 314 314 313 312 312 312 313 313 312 312 312 312 313 313 313 313 314 313 313 313 312 312 312 312 312 313 313 314 314 314 315 315 315 315 315 315 316 316 316 316 315 316 316 316 316 316 316 317 318 319 319 321 322 324 323 321 321 323 326 326 326 326 325 324 322 322 323 322
315 317 315 314 314 313 313 313 313 313 313 311 310 312 313 310 311 314 315 312 313 315 315 315 316 315 315 314 313 314 314 313 311 311 312 312 312 312 312 312 313 314 314 314 314 314 313 313 313 313 313 313 313 313 313 314 314 315 315 315 315 316 316 316 316 316 316 315 315 315 315 315 315 315 315 315 315 316 317 318 319 321 322 322 321 322 324 324 324 325 326 324 323 324 323 321 320
315 315 314 313 313 313 314 313 313 313 312 309 308 311 312 311 312 314 314 312 313 314 315 316 316 316 315 313 312 313 314 314 313 312 312 312 312 313 313 314 314 315 315 315 314 314 314 314 314 314 314 314 314 314 314 315 315 315 316 316 316 316 316 316 315 315 315 315 315 315 315 315 315 314 314 314 314 314 315 316 317 319 320 321 322 322 323 323 324 324 324 324 324 324 321 319 319
314 315 313 313 313 314 315 314 313 313 311 308 308 311 311 311 313 314 314 313 313 313 313 314 314 314 314 312 311 313 314 314 314 314 314 314 314 314 315 315 315 315 315 315 315 315 315 315 315 315 315 315 315 316 316 316 316 316 316 316 316 316 315 315 315 315 315 315 315 315 315 315 315 315 314 314 314 314 314 314 315 316 317 319 320 321 322 322 323 322 322 322 322 321 321 320 321
315 318 315 313 314 314 314 314 313 313 311 309 308 310 311 312 313 313 313 312 311 311 311 311 312 312 312 311 311 313 314 314 314 315 315 315 315 315 315 315 316 316 315 315 316 316 316 316 316 316 316 316 316 316 316 316 316 316 315 316 315 315 316 315 315 316 315 315 315 315 315 315 315 315 315 314 314 314 313 313 313 314 315 316 317 318 319 320 320 320 320 319 319 320 322 322 322
315 316 315 314 315 313 312 312 312 312 312 311 309 310 312 313 314 314 313 312 311 311 310 310 311 311 311 311 312 312 313 314 314 314 315 315 315 315 316 316 316 316 316 316 316 316 316 316 315 315 315 315 315 315 315 315 315 315 315 315 316 315 316 316 315 315 315 315 315 315 315 315 315 315 314 314 314 314 314 313 313 313 313 314 314 315 316 317 318 318 317 316 316 316 318 318 319
314 313 313 313 313 313 311 310 309 309 311 313 311 312 312 313 314 314 313 312 311 311 310 310 311 311 311 313 313 312 313 314 313 314 315 315 315 315 315 315 315 315 315 315 315 315 315 315 315 315 315 315 315 315 315 315 315 315 315 315 315 315 315 315 316 316 316 316 316 316 315 315 315 315 314 314 314 314 314 313 313 313 313 313 313 313 314 315 315 315 315 314 314 314 314 314 314
313 313 313 312 311 312 311 311 311 310 311 312 311 311 311 310 312 313 312 312 312 312 311 311 312 312 312 315 314 310 312 314 313 314 315 315 315 315 315 315 315 315 315 315 315 315 316 316 316 316 315 315 315 315 315 315 315 315 315 315 315 315 315 315 315 315 315 316 316 316 316 315 315 315 315 315 314 314 314 314 313 313 313 313 312 313 313 313 313 313 313 312 312 312 312 312 312
312 312 313 312 312 312 310 311 312 312 312 311 310 310 310 311 312 312 312 312 312 312 311 312 312 312 314 315 312 309 311 313 313 314 314 315 315 315 315 315 315 315 315 316 316 316 315 316 315 315 315 315 315 315 314 315 315 314 314 315 315 315 315 315 315 315 315 316 316 315 316 315 316 316 315 315 315 314 313 313 313 313 312 313 312 312 312 312 312 312 312 312 311 311 311 311 311
310 310 311 313 314 312 311 312 312 312 312 311 311 310 310 312 313 313 313 312 313 313 312 312 312 314 315 314 311 309 311 312 314 314 314 315 315 315 315 315 315 316 316 316 315 315 315 315 315 315 314 314 314 314 314 314 315 315 315 315 315 315 315 315 315 315 315 315 315 315 315 315 315 315 315 315 314 314 314 313 313 312 312 312 312 312 312 312 312 311 311 311 311 311 310 311 311
310 310 311 312 313 311 311 312 311 311 311 311 312 311 311 313 313 313 313 312 312 313 313 313 314 315 315 313 311 310 311 313 313 314 314 315 315 315 315 315 315 315 315 315 315 315 315 314 314 314 314 314 314 314 315 315 315 315 315 315 315 315 315 315 315 315 315 315 315 315 315 315 315 315 315 314 314 314 314 313 313 312 312 311 312 312 311 311 311 311 311 311 311 311 311 311 311
312 312 312 312 313 312 312 313 311 310 310 310 311 310 311 313 312 312 312 311 311 312 312 314 315 314 313 311 311 310 311 313 313 313 314 315 315 315 315 315 315 315 315 315 314 314 314 314 314 314 314 314 314 314 315 315 315 315 315 315 315 315 315 315 314 314 314 314 314 314 315 314 314 314 314 314 314 314 314 314 313 313 312 311 311 311 311 311 311 311 311 311 311 311 310 311 310
Wind_Speed
4 4 4 3 3 2 4 5 5 3 3 1 3 2 5 4 5 7 7 6 5 6 4 5 8 5 2 4 5 6 9 9 5 2 3 11 16 19 16 13 15 15 13 12 11 10 8 8 8 8 8 9 12 12 12 12 12 12 15 18 17 13 10 8 8 11 13 13 12 12 14 15 16 16 14 13 14 14 16 17 16 16 17 16 16 17 17 17 18 18 17 17 16 16 16 15 14
3 4 4 3 4 4 4 5 4 3 3 2 4 2 7 6 5 7 8 5 5 8 5 7 7 4 4 4 3 3 9 13 8 9 12 17 16 17 17 13 14 14 12 13 12 10 8 8 8 8 8 9 12 12 13 13 12 12 15 19 17 13 10 8 8 10 12 13 13 13 14 14 15 16 14 13 14 14 16 16 15 15 15 16 16 16 17 17 16 17 17 16 16 16 16 15 15
4 5 5 2 4 6 4 5 5 2 3 3 5 4 7 7 6 7 8 7 9 10 7 7 6 3 1 0 2 4 7 10 10 15 16 17 15 18 18 14 14 13 13 14 12 10 9 8 8 8 8 9 12 12 13 13 13 12 13 16 16 13 11 9 7 8 11 14 13 11 13 13 15 15 14 13 13 13 14 15 14 15 15 15 15 15 16 16 16 16 16 16 16 16 16 15 15
5 6 6 3 5 7 5 5 4 3 3 2 5 6 7 7 7 8 10 9 10 9 7 7 5 2 3 3 4 3 7 9 10 13 17 13 12 20 19 14 15 12 14 14 12 10 10 9 8 8 8 9 11 11 13 13 13 13 12 15 16 14 12 9 7 7 8 11 11 9 11 13 13 13 13 13 13 13 13 14 15 14 14 14 14 15 15 15 15 15 15 15 15 15 15 15 16
5 7 8 5 5 3 3 3 3 4 1 2 4 8 8 7 9 9 10 8 8 7 6 7 4 3 3 4 4 3 7 9 9 11 16 11 12 19 18 16 15 13 15 14 12 10 10 10 8 8 8 9 10 11 12 13 13 13 12 16 17 14 12 10 7 6 6 8 9 8 10 12 12 13 14 14 13 14 14 15 15 14 14 15 15 15 15 15 15 14 14 14 14 14 14 15 15
5 5 6 5 5 2 3 3 3 4 3 4 3 8 8 6 10 11 10 8 6 4 4 6 2 3 4 2 2 3 5 8 8 12 14 11 14 18 17 17 15 14 15 13 11 10 11 10 8 8 8 8 9 10 12 12 13 14 13 16 17 13 11 10 6 4 5 7 8 7 7 10 12 13 15 14 13 14 14 14 14 15 15 16 15 14 14 14 14 13 14 14 14 14 14 15 15
6 5 5 5 4 3 5 4 4 3 4 6 3 7 9 9 11 13 11 8 4 3 5 5 2 3 4 4 3 3 8 9 9 12 11 12 17 18 17 16 14 15 14 12 11 11 12 11 8 8 8 8 8 9 11 12 13 14 13 15 16 13 11 10 5 3 4 6 7 7 6 9 11 13 14 14 13 12 12 13 13 14 15 15 14 13 13 13 13 12 13 13 13 14 14 14 14
8 4 4 5 3 3 5 4 1 1 4 4 3 3 7 11 13 12 10 7 6 6 7 6 4 4 4 5 3 3 10 11 12 12 10 15 17 16 17 14 14 15 13 12 11 11 13 11 9 8 8 8 8 8 10 12 12 13 13 12 13 12 10 9 5 4 5 6 7 7 8 9 11 12 13 14 12 11 12 12 13 13 14 14 13 13 13 13 12 12 12 11 12 13 13 14 14
8 4 4 5 3 4 5 3 1 3 4 4 3 3 5 11 12 11 9 6 6 7 8 7 5 3 5 6 5 6 10 12 14 13 12 16 16 16 16 13 15 15 13 13 11 12 13 11 10 9 8 8 8 8 9 11 12 12 12 12 11 11 9 7 7 8 8 8 8 8 9 10 11 12 13 13 12 12 13 13 13 13 13 14 14 14 14 13 12 11 11 11 12 13 13 13 13
7 5 4 4 4 4 5 3 2 3 5 4 4 6 5 9 10 11 9 7 8 8 8 6 4 2 4 6 6 7 9 12 14 13 14 15 15 15 15 13 14 15 13 13 11 12 13 12 10 9 9 8 8 8 9 10 11 12 11 11 12 11 10 10 10 11 10 9 10 10 10 11 12 12 12 12 12 12 12 12 12 13 14 15 15 15 15 15 14 13 12 12 12 13 13 13 13
6 6 3 3 4 5 5 4 4 3 5 4 5 7 7 8 8 9 9 7 8 7 8 6 4 4 3 5 5 5 8 13 15 15 15 15 15 15 15 15 14 14 13 14 13 11 13 12 11 9 9 8 8 7 8 9 10 11 11 11 11 11 12 12 11 11 11 11 11 11 10 12 13 12 11 11 11 12 11 11 12 13 14 15 16 15 16 16 16 15 14 13 13 13 12 12 12
5 5 3 4 6 4 2 2 4 4 5 5 6 7 7 9 7 8 8 7 8 6 9 8 3 5 4 4 5 5 8 13 16 16 17 16 15 14 15 14 14 14 13 15 13 11 12 12 10 8 8 7 7 7 7 8 9 10 10 11 10 11 11 11 11 11 12 11 11 11 10 11 13 13 12 12 11 11 12 12 12 13 15 15 15 15 15 16 17 17 16 15 14 13 12 11 11
4 4 5 4 3 2 0 1 4 4 4 5 6 9 9 10 8 8 8 7 9 6 8 8 2 3 3 6 6 7 10 15 17 17 20 18 14 13 14 13 14 14 13 15 14 12 11 11 10 8 8 7 6 7 6 7 7 8 9 10 10 10 10 11 11 11 11 11 11 11 11 10 12 13 12 12 11 11 12 12 12 13 14 13 13 14 14 15 16 17 17 16 15 13 12 11 10
5 3 5 2 1 2 1 1 4 4 4 6 8 10 11 9 6 5 7 7 8 5 7 9 4 3 3 6 7 10 12 18 19 18 23 20 14 13 13 13 15 14 13 15 14 14 12 10 10 8 8 6 6 6 5 6 6 7 8 8 9 9 9 10 10 11 11 11 11 11 11 10 11 12 12 12 11 11 11 11 11 12 12 11 11 12 13 14 15 16 16 16 15 14 12 11 9
7 4 5 2 2 3 2 1 3 5 4 8 9 12 11 6 4 4 5 4 5 5 6 9 6 2 1 1 6 13 16 20 22 21 24 22 16 14 13 14 15 15 14 14 13 14 13 11 11 10 8 8 7 5 5 6 6 6 6 7 8 8 8 9 9 10 10 10 10 11 11 10 10 11 11 11 11 11 10 9 10 11 10 10 9 9 10 11 13 14 15 15 15 14 13 12 10
9 4 4 4 4 4 4 2 3 4 4 9 10 12 10 6 6 5 5 1 4 6 5 5 7 2 4 5 8 12 18 21 23 22 23 22 18 15 13 13 14 15 14 14 13 14 14 12 12 11 10 9 8 6 5 6 6 6 6 6 7 7 7 8 8 9 9 9 9 10 10 10 10 10 10 10 10 9 9 9 8 9 9 8 8 7 8 9 10 11 13 13 14 14 13 12 10
9 5 4 4 5 4 5 6 4 2 6 10 11 13 10 7 7 5 6 4 2 6 5 4 8 5 1 5 12 12 17 22 23 23 23 20 19 16 13 12 13 14 14 15 14 14 15 14 13 12 12 11 9 8 6 7 7 7 7 6 6 6 6 6 7 7 7 7 7 8 8 8 8 8 8 8 9 8 8 7 7 7 7 7 6 6 6 7 8 9 10 11 12 12 11 10 10
7 5 5 5 5 4 4 6 3 2 6 10 12 15 11 8 10 7 6 7 4 4 6 5 6 8 4 5 12 12 16 23 23 23 23 20 19 18 15 13 13 14 14 15 14 15 15 16 15 13 14 13 11 10 8 8 8 8 8 7 6 6 6 6 6 6 6 6 6 6 6 7 6 6 7 7 7 7 7 6 6 5 5 5 4 4 5 6 6 7 7 8 9 9 9 9 8
8 4 6 6 3 3 3 4 4 2 5 12 13 14 10 8 11 10 7 8 8 6 7 7 6 8 8 6 10 13 17 23 25 24 24 23 20 20 18 16 14 14 14 14 14 15 16 16 15 15 16 15 13 12 11 10 9 9 9 8 7 6 6 6 6 5 5 5 5 5 5 5 4 4 5 5 5 5 6 5 5 4 3 3 2 2 3 4 4 5 5 7 7 7 7 7 7
7 4 6 4 5 6 5 5 6 4 4 12 13 11 8 7 11 10 8 7 9 8 8 10 10 10 11 9 9 13 17 21 24 24 24 23 20 19 19 18 17 16 14 13 13 14 15 16 16 16 17 18 16 15 13 11 10 10 9 8 9 8 7 7 6 6 5 5 5 4 4 4 3 4 4 4 4 4 4 4 4 4 3 3 3 1 1 1 2 3 3 5 5 5 5 5 5
6 5 3 2 6 5 5 6 6 4 4 10 13 11 8 7 9 10 8 6 7 10 9 9 9 11 14 13 9 13 18 20 22 22 22 22 20 19 18 18 18 17 15 14 13 14 15 15 16 16 16 18 19 18 16 13 11 12 11 9 9 9 9 8 7 7 7 6 5 5 5 4 4 4 4 3 4 4 4 4 3 3 4 4 4 3 2 1 1 1 2 3 4 4 4 3 3
5 3 3 4 4 4 6 5 6 5 4 8 12 11 9 9 8 10 11 7 3 4 7 8 5 8 14 15 11 14 19 21 21 21 22 22 20 19 17 16 16 16 16 15 14 14 15 15 15 15 16 17 19 19 16 15 14 13 12 11 10 10 10 9 8 8 9 8 7 6 6 5 4 4 4 4 4 4 4 4 4 4 4 4 4 4 3 3 3 2 2 2 1 1 2 2 3
5 3 3 4 4 5 6 4 6 6 4 8 10 9 10 10 9 9 12 9 3 5 6 8 8 8 11 13 12 14 17 21 22 22 23 22 22 21 18 16 16 16 17 16 15 15 16 17 17 16 16 17 18 18 15 15 16 14 13 13 12 11 11 11 9 8 9 9 9 8 7 7 6 6 5 5 5 5 5 6 6 6 6 6 6 6 5 5 5 5 4 3 3 2 1 2 2
7 3 5 4 6 5 6 5 8 7 3 5 6 7 9 10 7 6 12 10 3 4 5 5 8 11 11 10 12 13 14 17 20 22 22 22 22 22 19 17 16 17 17 16 15 15 17 19 20 18 17 18 19 19 16 14 14 13 14 15 15 14 13 13 11 8 8 11 11 10 10 9 8 8 7 6 6 6 6 7 7 8 8 8 8 8 7 7 7 7 7 6 5 4 4 4 3
9 3 7 5 5 6 6 6 8 6 3 4 5 6 6 6 4 4 11 9 8 10 7 5 5 8 12 11 11 13 14 16 18 20 21 21 21 21 20 19 17 17 18 17 16 15 16 19 21 19 19 18 19 20 19 16 14 14 15 15 17 17 16 15 13 11 11 12 13 12 12 11 11 10 10 9 8 8 8 8 8 9 9 9 9 10 9 9 9 9 9 8 8 7 6 6 6
7 6 9 7 7 7 6 6 7 5 4 5 7 7 3 3 4 6 9 9 11 13 12 11 7 5 8 11 12 13 14 16 17 19 21 22 22 22 22 21 20 19 19 19 18 15 14 18 20 20 20 20 20 20 20 19 17 15 15 16 18 19 17 17 16 15 14 14 14 14 14 13 13 13 12 11 11 10 10 9 10 10 10 11 11 11 11 11 11 11 10 10 10 9 9 8 8
8 12 10 9 8 6 5 6 7 4 5 5 6 5 3 2 4 4 9 13 13 12 12 14 14 11 9 10 13 14 15 15 17 18 20 23 24 24 24 24 23 21 20 22 21 17 14 17 20 20 20 22 22 22 21 21 19 17 16 16 18 19 19 19 19 18 17 17 16 16 15 15 15 15 14 14 13 13 12 12 12 12 12 12 12 12 12 12 12 12 12 12 11 11 10 9 9
12 16 11 9 7 7 5 6 7 4 5 5 2 3 3 3 3 3 8 12 13 12 13 14 15 13 13 12 13 14 16 17 17 19 20 22 23 23 23 24 24 23 22 22 22 20 17 17 20 20 20 22 23 23 23 22 21 20 19 18 17 18 20 21 21 20 20 19 19 18 17 16 17 17 16 16 16 15 15 14 14 14 14 13 13 13 13 13 14 13 13 13 12 12 11 10 10
12 14 9 7 6 6 5 5 6 3 5 7 2 3 5 7 9 7 9 10 10 10 11 13 16 14 13 15 16 15 17 19 19 19 19 19 20 21 21 21 22 23 23 22 21 21 20 19 19 20 20 21 22 23 23 22 22 21 21 20 18 17 19 21 22 22 21 20 21 21 19 18 19 19 19 19 18 17 17 17 17 16 15 15 14 14 14 14 15 14 14 14 13 13 12 12 13
9 10 6 7 6 6 5 4 5 2 5 10 5 3 6 11 13 10 11 12 10 9 9 10 13 14 15 17 18 18 17 19 20 18 17 17 18 19 20 20 21 21 21 22 22 21 21 20 20 19 20 21 22 22 22 23 23 22 22 21 20 19 19 20 22 23 22 22 22 22 21 21 21 21 21 21 21 20 19 19 19 17 16 16 15 15 15 15 16 16 15 15 16 16 15 15 15
7 5 5 7 6 6 7 5 6 4 6 9 5 5 4 7 11 9 11 13 10 9 10 10 10 12 16 18 19 20 19 19 18 18 18 18 18 19 19 20 20 20 20 21 20 19 20 21 20 20 20 20 21 21 21 22 22 22 23 22 22 22 21 20 21 22 23 23 24 24 23 23 24 23 23 23 24 22 20 21 20 17 17 17 17 18 18 18 18 18 17 17 18 18 18 18 17
6 5 5 7 6 5 7 6 5 3 5 8 6 5 5 5 9 7 10 12 10 9 10 10 10 10 13 16 19 20 21 20 18 18 19 19 19 20 20 20 20 20 20 19 19 19 19 20 20 20 20 19 20 21 21 21 20 21 22 22 23 23 23 22 21 21 22 24 26 26 26 26 26 25 25 26 26 25 23 23 20 18 19 19 19 20 19 19 20 19 19 18 17 17 18 19 19
6 6 5 6 8 6 6 5 4 1 4 9 8 5 4 4 7 5 9 10 10 11 11 11 11 10 11 13 16 18 20 21 20 19 19 20 21 21 21 20 20 20 20 20 20 20 20 21 20 20 20 20 20 20 20 20 20 19 20 21 22 23 23 23 22 21 22 24 26 27 27 28 28 27 27 27 28 28 26 24 22 21 21 20 20 21 20 20 21 21 20 20 19 19 20 20 20
6 6 3 4 7 7 5 4 5 5 4 8 10 8 7 3 7 6 8 8 8 9 11 12 12 11 11 11 13 16 18 21 22 21 20 21 21 21 21 21 21 21 21 21 22 21 21 22 21 20 21 21 20 20 20 20 20 19 18 18 20 22 22 23 22 21 22 24 25 26 26 26 27 27 27 28 29 29 28 25 23 24 24 21 22 22 22 22 22 21 21 21 20 21 22 22 22
9 8 5 3 4 5 4 4 6 8 6 7 9 11 12 8 6 8 10 9 8 7 8 9 11 12 12 12 13 15 18 20 22 22 21 22 21 21 22 22 22 22 22 22 22 23 23 23 23 23 22 22 22 22 21 21 20 20 19 18 19 20 21 22 23 21 20 22 24 25 24 24 25 24 24 26 26 26 26 25 24 26 25 21 22 23 22 22 22 21 20 21 21 22 24 25 25
12 12 9 6 6 5 3 4 3 4 6 8 11 11 12 12 9 9 11 12 10 9 8 8 10 11 12 13 14 16 19 21 21 21 23 24 23 22 22 23 23 23 23 23 23 24 24 24 25 24 24 23 24 24 23 23 21 20 20 19 20 20 21 22 22 22 19 20 23 24 23 22 23 21 19 20 22 21 21 23 24 27 25 21 23 23 21 21 21 21 22 22 23 23 24 25 25
11 11 10 7 7 6 5 6 3 2 3 8 12 11 12 12 11 10 11 12 10 11 12 12 11 12 13 14 15 17 20 21 20 21 22 24 24 24 25 25 25 25 24 24 24 25 25 25 26 26 25 25 25 25 26 25 24 22 21 21 21 21 22 22 22 22 20 21 23 22 22 22 21 21 19 18 20 21 21 22 25 28 27 25 25 25 24 23 24 24 25 26 27 26 25 25 25
8 8 8 7 7 4 5 5 4 3 3 6 7 9 12 12 11 12 12 11 12 14 15 16 15 14 15 15 17 18 18 20 21 20 19 21 24 26 27 28 28 27 26 26 26 26 25 26 26 26 26 26 26 26 26 27 27 25 23 22 21 19 20 22 23 24 23 23 23 22 24 23 21 21 23 22 22 22 24 23 24 25 26 26 27 27 27 26 27 28 29 30 30 28 28 26 25
6 6 6 6 5 5 5 4 5 4 3 3 2 5 11 11 11 12 14 14 14 16 17 16 15 14 15 15 16 18 20 22 22 20 18 18 21 24 27 28 29 29 28 27 27 27 27 27 27 27 27 27 26 26 26 27 27 27 26 24 21 17 16 18 19 21 22 22 22 23 24 23 21 22 26 28 25 23 26 26 24 24 25 24 24 26 28 29 29 29 30 31 31 31 30 28 27
4 5 6 5 6 5 2 4 6 4 2 2 2 5 8 9 10 12 15 16 13 13 14 15 16 17 16 15 15 17 21 22 23 22 20 20 21 22 24 26 27 27 27 27 27 28 28 28 27 27 27 27 26 26 27 27 28 27 26 24 22 20 19 21 21 22 22 21 20 21 21 21 21 25 29 31 27 24 28 29 25 26 30 29 26 27 30 30 29 29 28 29 32 35 32 28 27
4 4 6 4 7 5 2 6 7 3 3 2 4 6 7 9 11 11 10 10 10 11 13 16 20 23 23 21 21 22 22 23 23 23 23 23 23 23 24 25 26 26 26 26 27 28 28 28 27 27 28 28 27 28 27 28 28 28 27 25 24 23 25 25 25 24 23 22 22 21 21 22 24 27 30 31 28 25 28 29 26 28 34 33 29 30 32 32 32 30 28 28 30 34 34 29 29
4 5 4 1 6 6 7 9 8 3 5 4 2 5 5 5 11 11 6 5 8 9 10 14 17 20 23 24 25 25 25 25 26 26 25 25 25 25 26 26 27 27 26 27 28 28 28 28 29 29 30 30 29 29 29 28 28 29 29 28 26 26 26 25 24 24 22 21 22 21 21 23 25 27 29 28 26 24 26 27 27 29 30 30 30 32 33 33 34 31 28 28 29 30 32 33 32
5 4 1 2 4 7 9 9 6 2 2 2 2 6 4 3 7 7 5 4 7 7 8 12 12 11 15 19 20 22 24 25 26 27 27 27 27 27 28 28 29 29 29 30 30 30 31 31 31 31 31 31 31 31 30 29 28 28 29 28 27 26 25 24 23 22 20 20 21 21 21 22 23 25 25 24 23 25 27 29 31 31 30 31 32 32 32 32 31 30 28 29 28 27 29 34 35
2 0 1 5 6 7 9 8 6 1 2 3 2 3 4 5 3 4 4 4 7 8 8 10 9 8 8 11 14 17 19 21 24 25 25 25 26 26 27 28 29 30 31 31 31 32 32 32 32 32 31 31 31 30 30 28 27 27 27 26 26 25 23 22 21 20 20 20 20 21 22 22 22 23 22 22 24 28 29 30 33 33 33 33 33 33 33 30 28 28 28 28 27 27 29 34 36
0 1 1 4 5 7 8 6 4 0 0 4 4 3 3 6 3 4 3 5 8 10 9 9 8 7 6 6 9 13 16 18 20 22 22 22 23 23 24 26 26 27 28 28 28 28 28 29 30 30 30 29 29 28 27 27 26 25 24 23 23 22 21 20 19 19 18 19 20 21 22 22 23 22 22 23 26 30 31 30 30 31 31 31 31 32 31 29 28 30 33 31 29 29 32 35 36
4 4 3 5 4 5 5 4 3 2 4 5 5 4 4 5 4 4 3 4 8 8 7 7 7 7 5 5 6 10 12 14 16 18 20 20 21 21 21 21 21 22 22 21 20 19 19 20 22 24 25 25 25 24 24 24 23 21 20 19 19 18 17 16 16 17 18 19 20 20 21 22 22 22 22 24 26 28 30 29 29 29 29 29 29 29 28 28 31 33 33 32 32 34 35 34 34
9 7 6 7 5 4 3 2 2 3 6 3 3 2 3 4 4 5 3 2 3 4 6 6 7 7 6 4 4 6 8 10 12 14 17 19 19 18 17 17 17 16 15 14 14 13 12 12 14 17 19 20 20 21 20 20 19 17 16 15 14 13 13 13 15 16 17 18 18 18 19 20 20 21 21 22 24 25 27 28 29 29 29 30 30 30 30 31 32 32 32 34 35 37 37 35 34
6 5 7 6 4 3 3 3 3 6 5 1 2 1 2 5 4 2 1 2 2 1 5 7 8 8 7 5 3 4 6 7 9 11 13 15 15 14 13 13 13 12 12 12 11 11 11 11 11 12 14 14 15 15 15 15 13 12 11 10 10 10 11 12 14 15 15 15 15 16 16 17 18 19 19 21 22 23 25 27 28 29 29 30 30 31 32 33 32 32 33 35 35 34 37 35 33
3 6 8 6 5 5 5 5 5 6 2 3 1 1 3 7 7 4 3 2 4 2 2 6 8 9 7 5 3 4 6 8 10 10 11 12 12 13 13 12 12 11 11 11 11 11 11 11 11 11 11 10 10 10 10 9 9 8 8 8 9 9 10 11 12 12 12 13 13 14 15 16 17 17 18 19 20 21 24 26 27 28 29 29 29 30 32 33 34 34 35 37 36 36 37 35 34
7 8 8 7 6 5 6 6 5 4 1 2 0 1 3 5 6 8 7 2 6 5 2 3 6 6 6 5 3 4 8 10 12 13 13 14 14 14 15 14 14 13 13 12 12 12 11 11 11 10 10 9 9 8 8 8 7 7 7 6 7 7 7 8 8 9 10 11 12 14 15 15 16 17 18 18 18 19 22 24 26 27 28 29 30 31 32 32 34 35 36 37 37 37 38 36 37
5 3 3 6 5 4 5 5 4 3 3 2 1 1 4 3 1 2 2 3 5 6 6 5 5 5 5 3 2 6 9 10 12 14 14 16 16 17 17 16 16 15 15 15 14 13 13 12 12 11 11 10 10 9 8 8 6 5 4 3 2 2 3 5 6 7 9 10 11 13 14 15 16 17 18 18 18 18 20 22 24 26 27 29 30 31 32 33 34 35 36 36 37 37 39 40 41
3 1 1 4 2 1 1 1 1 2 1 2 3 3 4 3 2 3 5 3 3 5 7 8 7 7 7 4 3 7 10 11 13 14 15 16 17 18 18 18 18 17 17 16 15 15 14 14 13 12 12 11 11 10 9 8 7 6 4 3 2 2 4 5 6 8 9 11 12 13 14 15 16 16 17 19 19 20 20 21 23 24 25 27 29 30 31 33 34 35 35 36 37 38 40 41 42
3 2 3 2 2 3 3 1 2 1 3 3 4 4 3 3 6 4 6 5 4 5 6 7 8 9 8 5 5 9 10 12 13 14 15 17 18 19 19 19 18 17 17 16 15 15 15 15 15 14 14 14 13 11 10 8 7 5 5 4 4 5 6 8 9 10 12 13 15 16 17 17 18 18 19 20 21 22 22 23 24 24 25 26 27 28 29 31 32 33 34 35 35 36 38 39 40
2 4 4 3 1 1 1 2 2 2 5 2 3 5 4 3 3 2 6 6 6 6 6 7 7 9 8 7 8 10 11 13 14 14 16 18 19 19 18 18 17 17 17 17 17 17 17 17 17 16 14 13 11 9 7 5 5 5 5 6 7 8 9 10 12 13 14 15 17 18 19 20 21 21 22 23 24 24 24 25 25 25 26 27 27 27 28 29 30 31 32 33 33 33 34 35 36
1 1 1 2 2 3 3 3 2 4 5 3 3 5 4 5 4 2 5 7 8 8 7 7 8 9 9 10 11 11 12 14 15 16 18 19 20 19 19 18 18 18 19 19 20 19 18 17 15 13 11 9 7 5 4 4 4 5 7 8 9 10 11 12 13 14 15 16 18 19 21 22 23 24 24 25 25 25 25 25 25 26 26 27 28 29 29 29 29 30 30 30 30 30 32 32 32
1 1 0 0 1 2 3 3 3 3 5 4 3 3 3 5 6 5 4 5 7 9 8 7 9 10 11 13 13 12 13 16 17 18 20 21 21 21 21 21 21 21 21 20 19 18 16 14 12 10 8 6 4 3 4 4 6 7 8 9 10 11 12 13 14 15 16 18 19 21 22 23 24 24 25 25 25 25 24 24 25 26 26 27 28 29 29 29 30 31 31 29 28 29 30 30 29
3 4 5 3 1 0 1 3 1 1 3 5 4 3 2 2 4 6 4 4 3 4 5 7 8 10 13 15 15 14 15 17 19 21 22 22 22 22 22 23 22 22 20 19 17 15 13 10 8 6 4 3 2 3 5 5 7 8 9 11 11 13 13 14 15 15 17 18 20 21 23 23 24 24 24 24 24 24 23 23 23 24 25 27 28 29 29 30 30 31 31 30 29 29 30 30 29
3 4 6 6 4 3 3 4 1 0 2 2 3 3 1 2 1 2 2 4 3 2 1 4 6 10 15 16 16 16 17 19 20 22 23 23 24 24 24 23 22 21 19 16 14 12 9 7 4 2 2 3 4 5 6 7 8 9 10 11 11 12 12 13 14 15 16 18 20 21 22 23 23 23 23 23 23 22 22 22 22 22 22 24 26 28 29 30 30 31 31 31 31 31 32 31 31
Wind_Direction
167 183 167 154 160 219 248 243 246 193 252 248 116 156 125 88 109 133 134 134 138 119 79 116 120 102 69 12 20 31 33 29 12 359 112 123 141 155 145 139 148 147 147 144 140 134 133 126 109 92 79 67 61 53 54 62 72 87 98 100 97 92 84 76 62 58 59 66 79 85 87 87 89 91 88 83 79 81 80 78 76 76 79 79 79 79 81 81 81 81 81 81 82 84 84 87 90
169 180 158 157 186 238 248 231 254 167 217 177 135 138 115 127 158 154 147 139 108 116 129 132 134 108 27 2 8 9 49 45 49 86 110 129 138 158 148 139 146 144 146 142 136 135 139 132 115 97 84 72 63 55 57 64 70 82 99 102 99 96 91 78 61 66 65 66 80 84 84 84 87 91 88 83 81 83 84 83 81 79 79 78 78 81 82 83 82 82 82 83 83 83 84 86 87
179 172 150 173 210 245 257 228 254 203 207 168 131 114 127 154 165 144 124 99 99 121 134 131 144 138 356 332 43 11 70 61 81 107 121 134 143 157 149 144 146 142 144 141 139 144 147 141 122 101 88 75 65 58 59 66 70 80 102 105 103 103 97 85 64 68 69 69 82 83 83 87 88 91 90 86 85 89 92 91 86 82 80 79 79 80 83 84 82 82 83 84 84 83 84 85 85
188 174 158 203 229 233 239 222 255 243 209 140 126 131 154 164 145 110 94 92 113 134 137 151 152 165 277 16 24 28 91 83 91 121 131 138 162 155 149 150 145 144 146 143 144 152 156 147 126 104 89 79 69 61 62 69 74 79 99 111 112 107 99 94 78 71 64 69 79 71 77 91 90 92 95 94 90 88 89 89 85 82 82 83 81 79 80 80 79 79 78 78 80 82 82 83 85
186 180 172 213 252 240 250 243 261 247 244 56 123 140 164 154 130 106 101 104 123 148 153 176 147 144 223 17 359 25 87 105 108 126 127 147 180 153 149 151 145 152 148 144 148 156 162 150 127 109 93 85 75 66 67 72 79 81 96 114 113 108 104 100 92 81 57 61 70 59 74 91 94 95 92 88 84 82 82 83 83 83 82 80 78 78 77 77 77 77 77 76 78 81 82 84 86
175 188 188 222 270 299 262 232 221 214 27 7 88 133 157 140 129 119 116 115 119 155 172 189 155 127 166 106 57 59 119 127 119 129 127 158 169 152 151 147 150 158 149 145 148 158 163 152 131 116 101 91 82 70 69 73 80 81 94 112 110 107 105 99 98 84 55 50 54 56 77 91 94 95 88 83 83 84 84 85 86 84 86 84 81 81 80 79 78 78 78 78 78 80 82 85 88
170 180 186 217 242 247 244 228 220 185 51 13 47 128 149 133 131 132 133 136 136 163 186 188 195 173 131 129 129 130 163 135 127 141 147 163 153 154 151 146 156 154 149 147 148 162 164 154 138 120 109 97 87 75 69 74 81 83 92 108 108 107 108 107 112 88 56 53 57 64 86 94 95 98 97 94 90 92 93 91 91 88 88 89 88 87 85 82 80 78 78 78 78 80 82 84 87
171 178 200 226 210 207 249 241 231 82 66 53 53 77 127 138 142 148 155 158 161 167 185 181 215 228 112 127 120 141 177 158 147 145 163 163 151 156 148 149 158 149 152 150 153 166 164 157 143 125 115 104 94 82 73 75 81 86 90 100 108 115 123 123 113 93 78 73 71 75 91 94 95 98 99 101 99 101 101 98 96 92 90 89 88 85 82 78 76 76 77 79 81 83 84 85 85
185 211 221 232 221 202 241 232 147 76 97 100 109 66 98 146 153 158 161 150 153 161 174 177 218 244 115 132 95 121 188 185 158 142 157 158 153 154 145 157 156 152 161 152 161 170 164 160 150 135 123 115 104 93 81 78 82 88 90 92 99 106 116 114 99 95 89 80 76 82 93 92 96 98 98 103 105 106 104 101 100 95 92 91 89 84 81 79 76 76 77 80 81 85 85 85 85
206 222 231 237 235 207 220 213 150 107 115 99 120 138 134 153 163 165 163 145 150 154 153 166 215 235 126 129 105 133 193 198 170 150 156 155 157 154 146 161 158 160 168 154 161 172 169 164 157 144 132 125 113 103 91 84 83 87 91 92 92 92 92 91 88 88 86 80 78 83 91 89 94 99 99 104 106 106 103 101 100 96 96 95 93 88 84 80 77 77 78 81 82 85 86 85 84
207 210 248 246 227 214 212 190 157 120 119 122 122 142 156 159 174 171 159 141 150 151 147 173 199 184 163 111 110 169 197 186 167 154 159 157 159 157 150 163 167 166 169 161 161 170 173 169 165 149 138 134 122 114 101 92 87 88 90 91 90 88 85 83 83 81 81 82 80 83 90 92 95 99 100 103 105 106 104 103 102 102 103 99 94 89 83 79 75 75 77 80 83 87 87 86 84
220 186 205 226 224 224 207 172 151 127 127 156 142 144 160 164 178 171 161 145 156 163 164 190 183 164 183 116 125 181 191 173 160 160 165 161 159 160 157 164 172 172 171 164 161 168 175 174 169 156 147 144 134 124 112 102 93 90 89 89 89 89 88 85 84 82 83 85 86 88 94 100 101 103 101 101 104 107 106 106 106 107 106 99 92 86 80 77 74 74 75 77 81 85 89 89 86
242 189 203 226 245 251 139 127 131 134 162 163 138 143 157 169 182 176 169 154 166 170 166 181 157 194 178 104 133 165 182 173 163 171 171 165 163 163 162 167 173 177 176 166 165 169 173 175 172 171 161 154 152 137 125 117 103 98 92 91 90 91 93 92 91 88 88 89 91 94 97 101 102 104 104 102 101 103 106 107 109 109 107 100 91 85 79 76 73 72 71 72 74 79 85 87 86
242 233 229 221 266 251 194 154 143 176 176 131 117 141 158 173 185 180 176 165 167 150 149 169 169 215 164 122 156 162 176 179 170 174 175 171 167 166 166 170 172 179 183 173 174 170 169 175 176 184 176 169 170 155 147 136 122 114 104 101 97 94 95 96 97 93 92 91 90 93 96 99 100 104 105 103 100 99 104 106 108 107 104 98 90 83 77 75 73 71 70 69 69 70 73 78 82
236 270 251 218 198 200 198 188 176 209 159 123 128 148 157 167 168 178 197 170 136 132 154 178 189 201 127 121 158 167 181 183 178 176 177 177 172 171 170 172 174 178 185 180 179 175 171 176 181 188 184 181 179 175 176 160 149 138 127 121 113 106 101 96 97 96 95 93 92 92 93 97 99 103 105 103 101 99 100 100 101 101 99 96 89 83 77 73 71 70 70 69 68 67 66 67 71
227 253 246 221 211 196 187 175 191 218 142 125 138 152 158 162 169 186 208 170 105 156 167 175 195 189 30 53 107 165 189 184 184 180 177 179 176 176 173 176 179 179 184 182 183 183 178 179 185 189 188 187 181 186 195 187 178 163 154 144 133 122 111 100 96 97 98 95 94 95 93 98 100 103 106 107 106 102 100 98 96 95 95 94 89 83 78 73 69 69 68 67 68 67 65 64 64
225 236 230 215 212 195 176 177 182 172 118 125 144 162 168 158 172 197 196 203 154 164 170 173 199 198 111 121 130 164 192 186 186 181 177 180 179 180 178 180 182 182 187 185 186 188 184 184 186 188 190 190 186 189 201 205 199 187 178 163 154 139 127 116 105 101 103 102 100 100 99 101 102 105 109 112 114 111 108 103 100 98 96 97 92 83 78 73 68 65 66 67 66 67 68 66 64
215 219 216 216 208 187 170 175 155 107 135 146 159 173 181 161 167 188 187 200 202 175 186 195 199 202 216 172 160 172 186 188 188 183 182 182 183 185 183 183 184 186 190 190 191 192 191 191 189 189 190 189 190 193 203 214 212 206 198 183 174 161 150 139 127 118 111 114 113 109 105 105 107 109 113 115 119 120 118 117 114 111 104 104 98 83 79 73 66 62 61 64 65 65 67 65 63
218 225 215 220 189 111 90 131 99 21 154 152 161 178 191 170 162 177 193 195 194 201 196 188 184 195 212 197 184 186 182 187 189 188 189 186 187 189 188 187 187 190 192 191 194 195 196 198 196 193 193 191 192 196 203 216 223 221 212 201 192 183 177 165 156 148 133 130 128 122 115 120 127 123 124 123 126 128 130 135 131 131 125 123 118 82 80 75 67 60 57 60 62 58 57 58 56
223 230 223 201 122 91 76 107 96 46 131 151 160 173 186 164 155 172 199 194 190 211 197 188 194 190 201 199 196 195 184 186 190 191 193 191 189 192 194 194 191 192 194 194 195 197 198 202 203 198 196 196 195 197 201 210 220 222 216 213 206 197 196 191 182 175 165 157 146 141 142 153 160 154 155 147 149 149 150 157 152 158 160 164 183 179 110 83 64 50 47 53 56 50 43 41 38
204 212 247 110 122 120 101 103 104 86 125 155 153 163 178 159 162 177 194 197 193 214 200 189 201 189 195 199 191 194 188 186 190 192 194 195 193 195 199 201 200 195 195 199 199 200 199 201 204 202 200 201 200 198 199 203 211 214 209 215 215 204 204 205 201 197 192 185 177 173 171 175 179 182 185 186 190 182 180 184 184 192 190 194 210 222 228 264 320 360 6 35 49 46 37 25 17
202 194 10 64 119 123 111 113 129 119 124 151 151 167 172 153 175 191 199 212 165 175 182 181 189 170 189 204 194 185 192 193 193 194 196 197 196 198 200 202 205 200 198 202 203 204 203 203 204 205 205 206 206 202 200 205 209 210 207 211 217 212 211 211 209 210 210 204 200 198 194 194 198 202 202 209 216 213 213 215 218 223 224 228 236 243 246 260 271 282 294 325 14 34 24 7 3
224 173 79 60 62 96 115 130 157 141 133 162 161 164 156 159 188 197 211 225 107 108 158 189 199 171 180 208 207 192 195 201 202 204 202 201 200 199 200 199 202 201 201 204 205 208 208 208 207 207 209 211 212 209 204 209 212 210 211 215 215 216 218 217 215 214 218 216 214 214 210 210 213 217 217 220 227 229 230 231 233 236 238 242 246 252 254 257 264 269 272 278 275 275 290 313 332
245 165 134 88 62 97 118 136 159 150 151 165 158 160 165 183 187 185 218 229 206 178 157 168 195 192 197 213 216 210 208 207 211 214 210 207 205 203 201 200 202 202 204 206 205 209 212 213 213 212 214 216 218 216 211 211 214 210 213 221 220 221 224 225 221 216 222 224 222 222 222 222 223 226 228 229 233 236 239 240 241 243 244 247 251 255 257 258 262 266 269 271 268 269 268 275 286
241 168 132 117 83 101 115 134 153 150 162 162 170 175 168 191 185 195 223 217 219 229 206 172 160 178 201 211 214 215 216 215 215 216 213 210 209 207 205 203 204 204 206 208 206 208 214 216 216 216 217 218 219 221 219 215 216 214 215 222 226 228 230 231 229 225 229 233 231 229 228 230 231 234 236 236 239 241 245 246 246 248 248 249 253 256 257 258 261 263 266 268 268 269 268 271 275
210 150 127 126 105 109 114 127 144 149 161 165 184 180 135 184 219 234 223 207 214 229 228 219 206 184 193 204 212 215 218 220 217 218 218 215 212 211 212 210 210 210 211 213 211 207 211 216 216 217 219 221 222 224 225 222 221 221 220 225 231 232 232 233 234 234 236 239 239 235 232 233 236 239 240 239 241 244 246 248 251 252 252 253 254 257 258 258 260 262 264 266 268 270 273 277 280
142 129 116 118 107 113 123 124 138 138 144 172 194 172 120 163 219 230 197 208 223 223 228 227 222 222 219 212 214 216 219 222 221 221 222 220 217 216 217 217 217 215 215 219 219 214 211 216 218 219 222 226 228 228 229 228 227 226 225 227 233 234 231 232 235 237 241 243 243 241 237 236 238 241 242 241 241 243 246 247 250 253 254 255 254 256 258 259 261 262 264 265 267 271 275 281 285
137 129 108 113 110 114 122 125 143 148 150 181 211 152 131 143 212 229 183 204 222 217 222 227 223 219 222 224 222 220 220 222 223 223 226 227 226 226 224 225 224 220 221 226 226 223 220 220 222 221 223 228 231 232 233 233 231 232 232 230 233 236 233 231 234 239 241 243 245 246 244 241 241 242 243 244 244 244 246 246 248 251 254 255 256 258 258 259 261 263 265 266 267 269 273 281 290
156 147 125 133 137 137 137 128 153 186 165 170 170 180 198 198 214 213 190 196 194 197 211 221 224 214 210 219 223 225 222 223 225 225 230 234 234 234 232 231 231 228 227 229 230 229 228 228 229 226 224 229 232 234 237 238 237 236 238 235 233 237 237 233 234 238 241 243 245 247 247 246 245 244 244 247 248 247 248 248 248 249 252 254 257 259 261 262 262 264 266 269 268 266 269 279 289
175 175 162 152 171 176 154 140 166 190 159 169 183 241 221 204 203 191 191 201 189 193 203 208 218 211 209 216 219 224 224 224 226 226 228 232 234 235 234 234 234 233 231 230 232 232 233 234 237 235 231 232 235 237 238 241 242 240 240 239 236 237 241 240 238 238 239 243 246 247 247 247 247 247 247 250 250 249 248 251 251 249 251 256 259 263 267 268 267 268 270 273 273 271 271 272 279
181 179 188 178 197 174 143 146 176 178 157 173 204 256 239 173 172 178 197 205 200 215 218 206 206 204 211 218 218 221 225 226 226 225 226 227 230 231 230 232 233 234 233 233 235 235 237 238 240 243 242 241 241 241 240 242 244 244 243 243 241 241 242 245 246 244 241 242 246 249 248 248 248 248 249 252 254 253 250 250 253 252 252 256 260 261 263 267 270 272 272 273 272 272 272 270 271
183 179 195 198 205 154 134 151 177 187 160 185 214 239 242 142 136 172 203 204 207 223 226 213 206 201 208 217 220 222 225 228 226 224 225 223 225 227 227 228 230 232 234 236 237 236 237 240 241 244 247 247 245 244 242 241 242 244 245 245 245 246 245 244 246 249 248 245 246 248 248 248 248 249 249 252 255 256 253 252 255 256 255 256 260 260 258 263 267 271 272 270 269 270 269 266 265
198 205 195 187 196 169 145 154 179 195 152 195 223 254 251 142 127 180 205 204 211 223 228 220 213 209 206 212 219 223 226 229 228 224 224 223 222 224 225 226 228 230 233 235 236 235 236 240 241 242 246 249 249 246 243 241 241 242 245 247 246 246 247 246 244 246 249 250 249 249 248 248 248 248 250 252 255 257 255 255 257 258 257 256 259 262 261 262 264 268 271 269 269 271 270 264 259
192 209 206 174 199 189 163 148 166 184 188 209 218 242 256 171 133 175 192 189 197 216 227 223 219 217 212 211 216 221 226 230 231 226 225 225 223 224 226 227 228 230 233 234 236 238 238 240 242 242 244 247 249 248 245 244 243 242 242 244 246 246 247 248 246 243 245 249 252 251 247 247 248 247 249 253 255 257 258 257 256 258 259 255 256 261 261 262 264 266 268 268 268 267 268 266 262
181 191 200 162 207 223 194 154 155 179 207 223 208 224 246 234 171 170 178 183 197 217 225 227 226 222 217 216 220 224 227 231 234 231 229 229 226 226 228 228 230 231 233 235 238 240 240 242 243 243 243 245 249 250 250 249 245 243 242 241 244 246 247 248 248 245 243 247 253 254 248 247 250 250 250 252 253 254 257 258 256 258 259 253 254 260 260 259 261 264 265 266 267 266 266 269 268
183 186 201 190 190 212 176 104 111 182 201 218 219 226 240 239 222 199 190 192 211 232 236 240 235 227 223 222 225 229 231 233 234 233 233 232 228 227 229 229 230 231 233 236 238 240 241 242 243 243 242 244 247 250 251 250 247 245 242 241 243 247 248 250 251 249 244 245 254 258 254 250 251 252 252 250 249 250 254 257 258 259 258 251 252 258 261 261 262 263 265 265 266 267 268 269 270
190 188 203 202 193 193 145 101 98 204 218 221 225 238 246 245 240 230 210 195 210 235 241 241 236 232 229 225 227 231 234 236 237 236 234 234 232 229 229 230 230 230 233 236 238 239 240 241 243 243 243 244 246 248 250 250 250 249 246 247 249 251 252 252 251 250 245 245 250 255 258 257 254 254 257 251 246 248 252 257 260 260 258 255 255 255 259 264 263 262 264 264 264 266 268 270 272
195 192 196 202 202 178 114 105 128 154 239 225 215 245 252 250 250 246 233 215 221 234 239 241 239 236 231 226 228 231 236 242 245 243 237 234 232 231 231 231 232 234 236 237 238 239 239 240 242 243 244 245 245 248 251 252 253 254 253 253 253 255 258 259 259 257 255 254 253 254 260 264 261 259 264 262 253 246 249 257 262 263 261 260 261 256 256 261 264 263 262 263 265 265 265 269 275
202 198 198 208 185 128 99 108 126 148 230 218 174 257 258 254 253 248 240 235 234 235 237 240 239 236 231 226 226 231 239 245 248 247 240 234 231 231 232 233 235 236 237 237 236 237 238 238 239 241 244 245 245 247 250 252 254 254 254 253 250 249 252 257 261 263 262 262 261 261 264 269 269 266 264 264 258 245 247 256 260 261 261 260 260 256 257 262 267 266 263 263 265 263 261 265 276
217 202 203 203 159 151 182 157 141 156 230 308 332 282 268 259 252 246 238 235 233 229 229 231 232 234 231 225 225 231 238 243 246 245 241 236 233 231 232 233 236 236 236 236 235 236 237 237 238 239 242 244 245 246 248 250 252 253 253 252 250 247 245 246 251 258 263 266 268 267 267 266 263 261 261 263 261 249 248 255 258 259 260 259 261 261 261 263 265 267 268 265 265 263 259 264 278
217 220 221 197 161 157 70 133 145 151 204 265 305 281 267 247 237 238 226 219 226 223 223 231 237 241 241 238 236 237 239 241 244 243 240 238 236 234 234 234 236 236 236 236 236 236 237 238 238 238 241 243 244 245 246 248 250 252 252 252 251 250 251 251 252 256 261 267 269 266 263 261 257 259 262 265 264 251 246 252 256 260 264 264 263 263 263 264 263 267 273 272 270 267 260 264 278
204 219 234 208 169 147 103 132 152 177 207 200 236 259 264 223 222 230 199 189 222 212 216 234 239 242 245 247 246 246 246 245 246 246 243 240 238 237 236 236 237 237 237 237 238 239 240 242 242 241 241 242 243 244 245 247 249 252 253 252 252 253 256 258 260 262 265 267 267 265 263 261 259 260 262 264 263 257 254 257 258 259 263 263 261 261 266 268 265 265 274 276 275 271 262 261 272
209 207 193 108 157 145 133 156 175 213 207 139 192 243 260 203 207 211 182 200 224 202 211 231 228 227 238 246 248 249 249 248 248 248 246 244 241 240 239 239 240 239 239 240 241 243 245 246 245 244 242 242 243 243 245 247 248 251 253 252 253 255 258 260 263 266 267 267 267 268 266 263 261 260 261 263 265 263 259 258 260 258 256 257 258 259 262 267 266 266 273 275 273 272 263 259 267
214 74 154 147 159 160 156 174 197 224 88 119 197 241 264 256 209 147 156 217 230 218 218 218 209 202 215 234 243 245 246 245 245 246 246 244 242 241 240 240 241 241 242 242 243 244 246 246 245 243 241 240 241 242 244 246 248 249 251 251 252 254 257 259 261 263 264 266 266 266 265 263 262 262 261 259 257 259 259 257 259 261 257 256 259 257 258 263 267 268 270 271 271 270 267 266 267
160 24 255 142 153 167 168 184 197 116 260 202 185 171 248 257 220 134 157 233 236 227 213 194 185 181 181 207 233 243 244 242 241 241 242 240 239 237 237 238 240 240 241 241 241 243 245 245 244 240 238 238 239 241 242 244 246 247 249 250 252 254 257 257 260 262 262 263 262 262 263 264 264 262 259 254 253 257 262 262 260 261 259 258 259 257 257 261 266 268 268 268 269 269 272 275 271
148 160 115 99 114 139 160 195 177 160 244 225 168 172 242 263 229 177 170 233 235 222 188 162 157 155 155 182 224 244 245 243 240 236 237 235 233 231 230 232 234 235 236 235 235 238 240 240 237 234 233 235 238 240 241 243 245 247 249 252 253 256 259 258 259 261 262 263 263 263 264 266 267 266 262 258 256 257 260 262 260 261 261 260 260 259 261 265 268 271 271 269 268 267 269 273 272
141 155 125 109 118 126 150 200 170 198 231 211 127 156 261 277 241 196 181 215 221 193 159 148 147 145 144 157 199 234 237 238 233 227 228 227 226 225 222 222 222 224 223 222 224 224 224 222 221 223 225 230 235 238 240 242 244 246 248 252 254 257 259 258 259 259 262 264 266 267 267 269 271 271 269 265 262 261 260 261 260 259 259 259 260 261 264 267 269 272 273 272 270 269 268 269 270
147 158 143 127 129 154 176 175 194 227 225 142 72 8 246 240 233 176 110 77 84 168 164 158 154 146 139 136 152 199 208 207 206 207 210 212 212 209 205 203 202 204 206 207 209 207 204 203 204 209 214 220 227 231 234 237 241 243 243 246 247 249 250 251 254 257 261 264 267 270 271 273 274 275 274 271 268 266 264 264 262 260 259 259 259 260 262 264 266 269 272 274 274 272 271 270 269
188 172 162 164 164 175 200 189 198 225 203 96 85 345 246 243 249 256 261 176 156 177 142 141 147 143 136 133 142 169 171 166 166 171 177 180 182 180 178 179 181 184 188 189 188 186 186 188 190 195 199 205 212 215 218 221 223 222 221 224 228 234 240 247 256 263 270 275 279 281 279 279 280 279 277 274 272 269 266 266 264 262 261 260 260 259 260 262 263 265 267 269 270 270 271 270 269
195 181 180 193 179 178 202 193 202 221 155 76 141 269 256 255 261 255 252 193 142 148 136 128 141 143 137 136 151 167 161 155 153 154 155 157 159 161 162 164 166 169 170 169 169 168 169 171 173 175 176 178 181 183 184 185 189 195 199 210 222 237 251 264 278 288 294 297 296 297 296 295 294 291 288 284 278 271 267 266 265 264 263 261 260 258 258 259 261 262 263 266 268 271 273 272 271
193 194 201 211 201 203 207 196 203 188 110 97 165 229 235 228 81 173 166 79 115 159 183 194 182 177 175 166 166 169 163 156 151 149 149 150 151 151 153 153 153 153 153 152 152 152 152 153 155 156 157 159 160 162 164 164 165 168 173 186 213 258 289 298 304 306 305 303 303 305 306 306 305 303 300 297 292 284 276 271 268 266 264 263 263 262 261 260 260 261 262 265 267 268 269 269 269
182 7 249 236 240 165 151 169 146 116 90 156 183 241 256 267 284 193 151 128 164 182 201 223 227 220 217 212 182 173 168 160 154 150 149 149 148 147 146 145 145 145 145 145 146 147 148 148 149 149 148 146 144 140 137 133 126 118 110 90 58 9 343 329 324 319 315 313 313 314 314 312 310 308 305 302 299 294 287 281 277 274 269 266 265 265 264 264 264 265 266 268 270 270 270 270 270
167 172 195 215 16 69 123 149 82 64 263 188 165 236 257 270 270 218 148 151 165 168 197 219 225 226 221 210 191 184 175 166 160 155 153 150 148 148 146 145 146 146 146 147 146 146 146 143 140 137 133 130 127 122 117 110 100 83 61 38 14 356 343 334 329 323 320 319 318 318 316 315 312 310 307 303 301 299 295 291 287 284 280 274 270 267 266 266 266 267 268 270 272 273 274 275 275
145 179 175 141 46 17 208 226 143 191 242 201 162 226 234 220 235 142 140 169 166 164 184 187 197 215 209 194 197 192 179 172 167 162 159 155 152 152 150 150 150 148 147 145 142 140 137 134 132 128 125 123 120 113 102 86 63 36 15 1 350 342 335 330 326 322 319 316 315 314 312 311 311 309 307 306 305 303 299 296 292 287 284 280 277 274 270 269 267 267 268 270 272 274 275 277 279
5 238 175 123 204 213 196 218 209 199 227 231 183 207 239 229 210 151 161 180 177 174 174 174 187 198 190 186 192 187 176 174 170 166 164 159 158 157 155 153 151 148 146 143 141 139 135 134 130 127 124 119 114 99 73 43 14 360 350 343 338 334 331 327 324 320 315 312 310 308 307 306 306 305 306 306 306 305 302 299 295 289 284 280 278 277 274 273 272 271 271 271 273 276 278 280 281
31 301 196 65 264 228 195 209 232 224 225 235 199 185 227 219 207 215 192 165 178 177 167 179 194 188 182 184 185 180 178 176 172 169 168 165 164 162 159 157 152 149 148 145 143 140 138 137 133 130 126 114 103 65 25 3 350 343 338 336 332 330 327 323 320 315 311 308 305 303 302 302 303 304 305 305 306 307 305 302 299 293 289 283 280 278 276 275 274 275 275 275 275 275 278 281 283
172 182 177 179 180 101 242 222 228 269 233 236 234 228 219 163 197 224 189 114 135 167 162 175 181 179 180 183 183 180 180 179 175 172 170 168 167 165 161 158 153 151 149 146 145 142 139 138 133 127 115 78 43 13 357 344 339 334 330 328 324 321 318 314 311 306 301 298 296 297 298 300 302 303 304 305 307 308 308 308 306 301 297 292 287 284 280 279 277 277 278 278 277 277 278 280 282
194 196 189 190 172 148 201 209 157 330 256 249 248 256 240 100 79 239 140 100 97 92 138 162 159 174 181 181 182 181 181 180 176 172 172 170 169 166 162 158 155 153 152 148 147 145 143 141 130 108 39 360 347 341 335 329 326 322 319 316 311 308 304 300 297 293 291 291 291 294 296 299 302 303 304 306 308 310 310 311 311 309 305 300 294 290 286 283 282 280 280 280 280 280 280 282 283